• In Hungary
  • List of Countries
  • For 7 days
  • Water Temperature
  • Satellite Maps
  • Weather Map
  • News
  • Weather Widgets
  • user-avatar
    Login

    Hourly Weather Kurachevo

    Today, 24 September, Monday

    Time Temperature Precipitation Wind Pressure Humidity
    00:00 +13°C° 0 mm 3 mps 749 mmHg 95%
    01:00 +13°C° 0 mm 3 mps 749 mmHg 96%
    02:00 +13°C° 0 mm 3 mps 749 mmHg 96%
    03:00 +13°C° 0 mm 3 mps 748 mmHg 96%
    04:00 +13°C° 0 mm 2 mps 748 mmHg 96%
    05:00 +13°C° 0 mm 2 mps 748 mmHg 96%
    06:00 +12°C° 0 mm 3 mps 748 mmHg 96%
    07:00 +12°C° 0 mm 3 mps 748 mmHg 96%
    08:00 +14°C° 0 mm 3 mps 748 mmHg 91%
    09:00 +17°C° 0 mm 4 mps 748 mmHg 86%
    10:00 +18°C° 0 mm 4 mps 748 mmHg 80%
    11:00 +19°C° 0 mm 4 mps 748 mmHg 75%
    12:00 +20°C° 0 mm 5 mps 748 mmHg 70%
    13:00 +22°C° 0 mm 5 mps 748 mmHg 65%
    14:00 +21°C° 0.1 mm 4 mps 748 mmHg 66%
    15:00 +21°C° 0.1 mm 4 mps 747 mmHg 67%
    16:00 +21°C° 0.1 mm 4 mps 747 mmHg 69%
    17:00 +20°C° 0.1 mm 3 mps 747 mmHg 75%
    18:00 +18°C° 0.1 mm 3 mps 747 mmHg 81%
    19:00 +16°C° 0.1 mm 3 mps 748 mmHg 87%
    20:00 +16°C° 0 mm 3 mps 748 mmHg 88%
    21:00 +14°C° 0 mm 3 mps 748 mmHg 88%
    22:00 +14°C° 0 mm 3 mps 748 mmHg 89%
    23:00 +13°C° 0 mm 3 mps 748 mmHg 89%

    Tomorrow, 25 September, Tuesday

    Time Temperature Precipitation Wind Pressure Humidity
    00:00 +13°C° 0 mm 3 mps 747 mmHg 89%
    01:00 +13°C° 0 mm 3 mps 747 mmHg 89%
    02:00 +12°C° 0 mm 3 mps 747 mmHg 88%
    03:00 +12°C° 0 mm 3 mps 747 mmHg 87%
    04:00 +12°C° 0 mm 3 mps 748 mmHg 86%
    05:00 +12°C° 0 mm 4 mps 748 mmHg 84%
    06:00 +12°C° 0 mm 4 mps 748 mmHg 82%
    07:00 +12°C° 0 mm 4 mps 748 mmHg 80%
    08:00 +13°C° 0 mm 5 mps 747 mmHg 73%
    09:00 +15°C° 0 mm 5 mps 747 mmHg 65%
    10:00 +17°C° 0 mm 6 mps 747 mmHg 58%
    11:00 +19°C° 0 mm 6 mps 747 mmHg 56%
    12:00 +20°C° 0 mm 7 mps 747 mmHg 53%
    13:00 +21°C° 0 mm 7 mps 747 mmHg 50%
    14:00 +21°C° 0 mm 6 mps 747 mmHg 52%
    15:00 +21°C° 0 mm 6 mps 747 mmHg 54%
    16:00 +21°C° 0 mm 5 mps 747 mmHg 56%
    17:00 +19°C° 0 mm 5 mps 747 mmHg 59%
    18:00 +17°C° 0 mm 5 mps 747 mmHg 62%
    19:00 +16°C° 0 mm 5 mps 747 mmHg 65%
    20:00 +15°C° 0 mm 4 mps 747 mmHg 66%
    21:00 +15°C° 0 mm 4 mps 747 mmHg 68%
    22:00 +14°C° 0 mm 4 mps 747 mmHg 69%
    23:00 +14°C° 0 mm 4 mps 747 mmHg 70%

    Day after tomorrow, 26 September, Wednesday

    Time Temperature Precipitation Wind Pressure Humidity
    00:00 +14°C° 0 mm 4 mps 747 mmHg 71%
    01:00 +13°C° 0 mm 4 mps 747 mmHg 72%
    02:00 +13°C° 0 mm 5 mps 747 mmHg 70%
    03:00 +13°C° 0 mm 5 mps 747 mmHg 69%
    04:00 +13°C° 0 mm 5 mps 747 mmHg 68%
    05:00 +13°C° 0.1 mm 5 mps 747 mmHg 69%
    06:00 +13°C° 0.1 mm 5 mps 747 mmHg 71%
    07:00 +13°C° 0.1 mm 5 mps 747 mmHg 72%
    08:00 +14°C° 0 mm 5 mps 747 mmHg 69%
    09:00 +14°C° 0 mm 6 mps 747 mmHg 66%
    10:00 +15°C° 0 mm 6 mps 748 mmHg 62%
    11:00 +16°C° 0 mm 6 mps 748 mmHg 61%
    12:00 +16°C° 0 mm 6 mps 748 mmHg 59%
    13:00 +17°C° 0 mm 6 mps 748 mmHg 58%
    14:00 +15°C° 0.3 mm 5 mps 749 mmHg 65%
    15:00 +14°C° 0.3 mm 4 mps 749 mmHg 71%
    16:00 +13°C° 0.3 mm 3 mps 749 mmHg 78%
    17:00 +12°C° 0.6 mm 3 mps 749 mmHg 83%
    18:00 +11°C° 0.6 mm 3 mps 749 mmHg 87%
    19:00 +10°C° 0.6 mm 2 mps 750 mmHg 92%
    20:00 +10°C° 0.1 mm 2 mps 750 mmHg 92%
    21:00 +10°C° 0.1 mm 2 mps 750 mmHg 92%
    22:00 +10°C° 0.1 mm 2 mps 750 mmHg 92%
    23:00 +9°C° 0.2 mm 2 mps 750 mmHg 92%

    27 September, Thursday

    Time Temperature Precipitation Wind Pressure Humidity
    00:00 +9°C° 0.2 mm 2 mps 750 mmHg 93%
    01:00 +9°C° 0.2 mm 2 mps 750 mmHg 93%
    02:00 +9°C° 0.3 mm 2 mps 749 mmHg 93%
    03:00 +9°C° 0.3 mm 3 mps 749 mmHg 93%
    04:00 +8°C° 0.3 mm 3 mps 749 mmHg 94%
    05:00 +8°C° 0.1 mm 3 mps 749 mmHg 93%
    06:00 +8°C° 0.1 mm 3 mps 749 mmHg 93%
    07:00 +8°C° 0.1 mm 3 mps 749 mmHg 92%
    08:00 +8°C° 0 mm 4 mps 749 mmHg 87%
    09:00 +8°C° 0 mm 4 mps 749 mmHg 81%
    10:00 +9°C° 0 mm 5 mps 749 mmHg 75%
    11:00 +9°C° 0 mm 5 mps 748 mmHg 73%
    12:00 +9°C° 0 mm 5 mps 748 mmHg 71%
    13:00 +9°C° 0 mm 5 mps 747 mmHg 69%
    14:00 +9°C° 0 mm 5 mps 747 mmHg 71%
    15:00 +8°C° 0 mm 5 mps 747 mmHg 72%
    16:00 +8°C° 0 mm 5 mps 746 mmHg 74%
    17:00 +7°C° 0 mm 5 mps 746 mmHg 75%
    18:00 +7°C° 0 mm 5 mps 746 mmHg 77%
    19:00 +6°C° 0 mm 4 mps 746 mmHg 78%
    20:00 +6°C° 0 mm 5 mps 745 mmHg 76%
    21:00 +6°C° 0 mm 5 mps 745 mmHg 73%
    22:00 +6°C° 0 mm 5 mps 744 mmHg 71%
    23:00 +6°C° 0 mm 5 mps 744 mmHg 71%

    28 September, Friday

    Time Temperature Precipitation Wind Pressure Humidity
    00:00 +4°C° 0 mm 6 mps 743 mmHg 70%
    01:00 +4°C° 0 mm 6 mps 742 mmHg 70%
    02:00 +4°C° 0.5 mm 6 mps 742 mmHg 74%
    03:00 +4°C° 0.5 mm 7 mps 741 mmHg 79%
    04:00 +4°C° 0.5 mm 7 mps 740 mmHg 83%
    05:00 +4°C° 0.6 mm 6 mps 740 mmHg 85%
    06:00 +4°C° 0.6 mm 6 mps 740 mmHg 87%
    07:00 +4°C° 0.6 mm 6 mps 739 mmHg 89%
    08:00 +4°C° 0.3 mm 6 mps 739 mmHg 87%
    09:00 +5°C° 0.3 mm 6 mps 739 mmHg 86%
    10:00 +5°C° 0.3 mm 6 mps 739 mmHg 85%
    11:00 +7°C° 0.5 mm 6 mps 740 mmHg 80%
    12:00 +8°C° 0.5 mm 6 mps 740 mmHg 75%
    13:00 +8°C° 0.5 mm 6 mps 740 mmHg 69%
    14:00 +8°C° 0.3 mm 6 mps 740 mmHg 69%
    15:00 +8°C° 0.3 mm 6 mps 741 mmHg 68%
    16:00 +8°C° 0.3 mm 6 mps 741 mmHg 67%
    17:00 +7°C° 0 mm 5 mps 741 mmHg 72%
    18:00 +6°C° 0 mm 4 mps 742 mmHg 77%
    19:00 +5°C° 0 mm 3 mps 742 mmHg 82%
    20:00 +5°C° 0 mm 3 mps 742 mmHg 83%
    21:00 +5°C° 0 mm 3 mps 742 mmHg 83%
    22:00 +5°C° 0 mm 4 mps 742 mmHg 84%
    23:00 +5°C° 0.7 mm 4 mps 741 mmHg 87%

    29 September, Saturday

    Time Temperature Precipitation Wind Pressure Humidity
    00:00 +5°C° 0.7 mm 5 mps 739 mmHg 90%
    01:00 +5°C° 0.7 mm 5 mps 738 mmHg 93%
    02:00 +5°C° 1.7 mm 6 mps 737 mmHg 93%
    03:00 +7°C° 1.7 mm 6 mps 736 mmHg 92%
    04:00 +8°C° 1.7 mm 7 mps 735 mmHg 92%
    05:00 +8°C° 0.3 mm 7 mps 735 mmHg 90%
    06:00 +6°C° 0.3 mm 8 mps 736 mmHg 87%
    07:00 +6°C° 0.3 mm 9 mps 736 mmHg 85%
    08:00 +6°C° 0.1 mm 9 mps 737 mmHg 84%
    09:00 +5°C° 0.1 mm 9 mps 738 mmHg 83%
    10:00 +5°C° 0.1 mm 9 mps 740 mmHg 81%
    11:00 +5°C° 0.1 mm 9 mps 741 mmHg 78%
    12:00 +5°C° 0.1 mm 8 mps 743 mmHg 75%
    13:00 +6°C° 0.1 mm 8 mps 744 mmHg 72%
    14:00 +6°C° 0 mm 7 mps 745 mmHg 70%
    15:00 +7°C° 0 mm 6 mps 746 mmHg 67%
    16:00 +7°C° 0 mm 5 mps 747 mmHg 65%
    17:00 +6°C° 0 mm 4 mps 748 mmHg 69%
    18:00 +5°C° 0 mm 3 mps 748 mmHg 73%
    19:00 +5°C° 0 mm 2 mps 749 mmHg 77%
    20:00 +5°C° 0 mm 2 mps 749 mmHg 79%
    21:00 +4°C° 0 mm 2 mps 750 mmHg 82%
    22:00 +3°C° 0 mm 2 mps 750 mmHg 84%
    23:00 +3°C° 0 mm 2 mps 750 mmHg 85%
    Show more